Time,TemperatureF,DewpointF,PressureIn,WindDirection,WindDirectionDegrees,WindSpeedMPH,WindSpeedGustMPH,Humidity,HourlyPrecipIn,Conditions,Clouds,dailyrainin,SoftwareType,DateUTC
2013-06-16 00:01:00,70.0,46.0,27.89,NW,308,2.0,7.0,42,0.00,,,0.00,,2013-06-16 07:01:00,
2013-06-16 00:11:00,70.0,46.0,27.89,NW,308,2.0,7.0,42,0.00,,,0.00,,2013-06-16 07:11:00,
2013-06-16 00:22:00,70.0,45.0,27.89,WNW,297,5.0,9.0,40,0.00,,,0.00,,2013-06-16 07:22:00,
2013-06-16 00:32:00,70.0,45.0,27.89,West,268,4.0,7.0,41,0.00,,,0.00,,2013-06-16 07:32:00,
2013-06-16 00:43:00,69.0,45.0,27.89,SW,236,1.0,4.0,42,0.00,,,0.00,,2013-06-16 07:43:00,
2013-06-16 00:53:00,69.0,45.0,27.89,SW,236,1.0,4.0,42,0.00,,,0.00,,2013-06-16 07:53:00,
2013-06-16 01:02:00,68.0,44.0,27.90,SSE,167,1.0,2.0,42,0.00,,,0.00,,2013-06-16 08:02:00,
2013-06-16 01:11:00,67.0,45.0,27.90,ENE,58,2.0,6.0,45,0.00,,,0.00,,2013-06-16 08:11:00,
2013-06-16 01:22:00,67.0,45.0,27.90,ENE,58,2.0,6.0,45,0.00,,,0.00,,2013-06-16 08:22:00,
2013-06-16 01:33:00,67.0,45.0,27.91,NNE,20,2.0,4.0,45,0.00,,,0.00,,2013-06-16 08:33:00,
2013-06-16 01:43:00,67.0,46.0,27.89,NNE,19,5.0,12.0,46,0.00,,,0.00,,2013-06-16 08:43:00,
2013-06-16 01:54:00,67.0,46.0,27.89,NNE,19,5.0,12.0,46,0.00,,,0.00,,2013-06-16 08:54:00,
2013-06-16 02:01:00,68.0,45.0,27.90,West,270,5.0,9.0,43,0.00,,,0.00,,2013-06-16 09:01:00,
2013-06-16 02:11:00,68.0,45.0,27.90,West,270,5.0,9.0,43,0.00,,,0.00,,2013-06-16 09:11:00,
2013-06-16 02:22:00,66.0,46.0,27.90,ESE,120,0.0,9.0,49,0.00,,,0.00,,2013-06-16 09:22:00,
2013-06-16 02:33:00,65.0,46.0,27.91,NW,322,0.0,7.0,50,0.00,,,0.00,,2013-06-16 09:33:00,
2013-06-16 02:42:00,65.0,46.0,27.91,NW,326,6.0,10.0,50,0.00,,,0.00,,2013-06-16 09:42:00,
2013-06-16 02:52:00,65.0,46.0,27.91,NW,326,6.0,10.0,50,0.00,,,0.00,,2013-06-16 09:52:00,
2013-06-16 03:01:00,65.0,46.0,27.91,NW,312,8.0,12.0,50,0.00,,,0.00,,2013-06-16 10:01:00,
2013-06-16 03:11:00,65.0,45.0,27.91,NW,324,4.0,14.0,49,0.00,,,0.00,,2013-06-16 10:11:00,
2013-06-16 03:22:00,65.0,45.0,27.91,NW,324,4.0,14.0,49,0.00,,,0.00,,2013-06-16 10:22:00,
2013-06-16 03:33:00,64.0,45.0,27.91,WSW,246,0.0,7.0,51,0.00,,,0.00,,2013-06-16 10:33:00,
2013-06-16 03:42:00,64.0,45.0,27.91,NE,52,4.0,14.0,51,0.00,,,0.00,,2013-06-16 10:42:00,
2013-06-16 03:53:00,64.0,45.0,27.91,NE,52,4.0,14.0,51,0.00,,,0.00,,2013-06-16 10:53:00,
2013-06-16 04:02:00,64.0,45.0,27.91,West,269,4.0,12.0,51,0.00,,,0.00,,2013-06-16 11:02:00,
2013-06-16 04:11:00,63.0,46.0,27.92,WNW,285,3.0,9.0,53,0.00,,,0.00,,2013-06-16 11:11:00,
2013-06-16 04:22:00,63.0,46.0,27.92,WNW,285,3.0,9.0,53,0.00,,,0.00,,2013-06-16 11:22:00,
2013-06-16 04:33:00,63.0,46.0,27.91,WNW,295,3.0,8.0,53,0.00,,,0.00,,2013-06-16 11:33:00,
2013-06-16 04:43:00,63.0,45.0,27.92,WSW,252,6.0,11.0,52,0.00,,,0.00,,2013-06-16 11:43:00,
2013-06-16 04:52:00,63.0,45.0,27.92,WSW,252,6.0,11.0,52,0.00,,,0.00,,2013-06-16 11:52:00,
2013-06-16 05:01:00,64.0,45.0,27.93,West,264,5.0,12.0,50,0.00,,,0.00,,2013-06-16 12:01:00,
2013-06-16 05:11:00,64.0,45.0,27.93,West,281,7.0,11.0,51,0.00,,,0.00,,2013-06-16 12:11:00,
2013-06-16 05:22:00,64.0,45.0,27.93,West,281,7.0,11.0,51,0.00,,,0.00,,2013-06-16 12:22:00,
2013-06-16 05:32:00,63.0,45.0,27.93,SW,235,4.0,9.0,52,0.00,,,0.00,,2013-06-16 12:32:00,
2013-06-16 05:42:00,63.0,45.0,27.93,WNW,303,3.0,17.0,51,0.00,,,0.00,,2013-06-16 12:42:00,
2013-06-16 05:53:00,63.0,45.0,27.93,WNW,303,3.0,17.0,51,0.00,,,0.00,,2013-06-16 12:53:00,
2013-06-16 06:01:00,61.0,45.0,27.94,NE,40,1.0,5.0,56,0.00,,,0.00,,2013-06-16 13:01:00,
2013-06-16 06:11:00,61.0,45.0,27.94,NE,40,1.0,5.0,56,0.00,,,0.00,,2013-06-16 13:11:00,
2013-06-16 06:22:00,60.0,46.0,27.94,WSW,243,0.0,5.0,60,0.00,,,0.00,,2013-06-16 13:22:00,
2013-06-16 06:34:00,62.0,46.0,27.95,WSW,251,0.0,5.0,56,0.00,,,0.00,,2013-06-16 13:34:00,
2013-06-16 06:42:00,63.0,46.0,27.95,NNE,19,3.0,7.0,53,0.00,,,0.00,,2013-06-16 13:42:00,
2013-06-16 06:53:00,63.0,46.0,27.95,NNE,19,3.0,7.0,53,0.00,,,0.00,,2013-06-16 13:53:00,
2013-06-16 07:01:00,61.0,46.0,27.96,ENE,64,4.0,10.0,57,0.00,,,0.00,,2013-06-16 14:01:00,
2013-06-16 07:12:00,61.0,46.0,27.96,NE,39,4.0,9.0,58,0.00,,,0.00,,2013-06-16 14:12:00,
2013-06-16 07:22:00,61.0,46.0,27.96,NE,39,4.0,9.0,58,0.00,,,0.00,,2013-06-16 14:22:00,
2013-06-16 07:34:00,62.0,46.0,27.96,ENE,62,2.0,9.0,56,0.00,,,0.00,,2013-06-16 14:34:00,
2013-06-16 07:43:00,63.0,47.0,27.97,WSW,257,4.0,9.0,55,0.00,,,0.00,,2013-06-16 14:43:00,
2013-06-16 07:52:00,63.0,47.0,27.97,WSW,257,4.0,9.0,55,0.00,,,0.00,,2013-06-16 14:52:00,
2013-06-16 08:02:00,63.0,46.0,27.96,NE,44,8.0,13.0,54,0.00,,,0.00,,2013-06-16 15:02:00,
2013-06-16 08:12:00,65.0,46.0,27.96,NW,310,2.0,9.0,51,0.00,,,0.00,,2013-06-16 15:12:00,
2013-06-16 08:22:00,65.0,46.0,27.96,NW,310,2.0,9.0,51,0.00,,,0.00,,2013-06-16 15:22:00,
2013-06-16 08:33:00,65.0,47.0,27.96,NE,41,6.0,11.0,53,0.00,,,0.00,,2013-06-16 15:33:00,
2013-06-16 08:42:00,65.0,47.0,27.96,NNE,27,6.0,12.0,53,0.00,,,0.00,,2013-06-16 15:42:00,
2013-06-16 08:52:00,65.0,47.0,27.96,NNE,27,6.0,12.0,53,0.00,,,0.00,,2013-06-16 15:52:00,
2013-06-16 09:01:00,66.0,48.0,27.96,ENE,77,4.0,11.0,52,0.00,,,0.00,,2013-06-16 16:01:00,
2013-06-16 09:11:00,68.0,48.0,27.95,NE,39,6.0,12.0,49,0.00,,,0.00,,2013-06-16 16:11:00,
2013-06-16 09:22:00,68.0,48.0,27.95,NE,39,6.0,12.0,49,0.00,,,0.00,,2013-06-16 16:22:00,
2013-06-16 09:33:00,69.0,47.0,27.95,NNE,33,5.0,8.0,46,0.00,,,0.00,,2013-06-16 16:33:00,
2013-06-16 09:43:00,69.0,47.0,27.95,NE,56,5.0,9.0,45,0.00,,,0.00,,2013-06-16 16:43:00,
2013-06-16 09:53:00,69.0,47.0,27.95,NE,56,5.0,9.0,45,0.00,,,0.00,,2013-06-16 16:53:00,
2013-06-16 10:01:00,70.0,48.0,27.95,NE,51,4.0,9.0,45,0.00,,,0.00,,2013-06-16 17:01:00,
2013-06-16 10:11:00,70.0,48.0,27.95,NE,51,4.0,9.0,45,0.00,,,0.00,,2013-06-16 17:11:00,
2013-06-16 10:22:00,71.0,45.0,27.94,ENE,74,4.0,7.0,40,0.00,,,0.00,,2013-06-16 17:22:00,
2013-06-16 10:34:00,73.0,47.0,27.94,ENE,78,2.0,5.0,39,0.00,,,0.00,,2013-06-16 17:34:00,
2013-06-16 10:42:00,74.0,47.0,27.93,NE,49,2.0,7.0,38,0.00,,,0.00,,2013-06-16 17:42:00,
2013-06-16 10:53:00,74.0,47.0,27.93,NE,49,2.0,7.0,38,0.00,,,0.00,,2013-06-16 17:53:00,
2013-06-16 11:01:00,75.0,47.0,27.93,North,11,2.0,7.0,37,0.00,,,0.00,,2013-06-16 18:01:00,
2013-06-16 11:11:00,75.0,47.0,27.93,North,11,2.0,7.0,37,0.00,,,0.00,,2013-06-16 18:11:00,
2013-06-16 11:22:00,77.0,46.0,27.93,SSW,193,0.0,4.0,34,0.00,,,0.00,,2013-06-16 18:22:00,
2013-06-16 11:33:00,77.0,46.0,27.92,East,82,3.0,4.0,34,0.00,,,0.00,,2013-06-16 18:33:00,
2013-06-16 11:43:00,79.0,47.0,27.91,ENE,75,2.0,5.0,32,0.00,,,0.00,,2013-06-16 18:43:00,
2013-06-16 11:52:00,79.0,47.0,27.91,ENE,75,2.0,5.0,32,0.00,,,0.00,,2013-06-16 18:52:00,
2013-06-16 12:01:00,80.0,46.0,27.91,East,89,2.0,4.0,30,0.00,,,0.00,,2013-06-16 19:01:00,
2013-06-16 12:11:00,80.0,46.0,27.91,East,89,2.0,4.0,30,0.00,,,0.00,,2013-06-16 19:11:00,
2013-06-16 12:22:00,82.0,46.0,27.91,SSW,208,0.0,4.0,28,0.00,,,0.00,,2013-06-16 19:22:00,
2013-06-16 12:33:00,82.0,46.0,27.91,SSW,208,0.0,4.0,28,0.00,,,0.00,,2013-06-16 19:33:00,
2013-06-16 12:43:00,84.0,43.0,27.90,SE,143,4.0,6.0,24,0.00,,,0.00,,2013-06-16 19:43:00,
2013-06-16 12:53:00,84.0,43.0,27.90,SE,143,4.0,6.0,24,0.00,,,0.00,,2013-06-16 19:53:00,
2013-06-16 13:01:00,85.0,43.0,27.89,NNW,337,1.0,5.0,23,0.00,,,0.00,,2013-06-16 20:01:00,
2013-06-16 13:11:00,85.0,43.0,27.89,NNW,337,1.0,5.0,23,0.00,,,0.00,,2013-06-16 20:11:00,
2013-06-16 13:22:00,85.0,42.0,27.89,East,91,2.0,7.0,22,0.00,,,0.00,,2013-06-16 20:22:00,
2013-06-16 13:33:00,85.0,44.0,27.88,East,96,2.0,5.0,24,0.00,,,0.00,,2013-06-16 20:33:00,
2013-06-16 13:42:00,85.0,44.0,27.88,East,96,2.0,5.0,24,0.00,,,0.00,,2013-06-16 20:42:00,
2013-06-16 13:53:00,87.0,40.0,27.88,South,169,3.0,8.0,19,0.00,,,0.00,,2013-06-16 20:53:00,
2013-06-16 14:01:00,86.0,41.0,27.88,South,181,0.0,5.0,21,0.00,,,0.00,,2013-06-16 21:01:00,
2013-06-16 14:11:00,86.0,41.0,27.88,South,181,0.0,5.0,21,0.00,,,0.00,,2013-06-16 21:11:00,
2013-06-16 14:21:00,84.0,40.0,27.87,SSE,167,0.0,5.0,21,0.00,,,0.00,,2013-06-16 21:21:00,
2013-06-16 14:32:00,84.0,40.0,27.87,East,82,0.0,3.0,21,0.00,,,0.00,,2013-06-16 21:32:00,
2013-06-16 14:42:00,84.0,40.0,27.87,East,82,0.0,3.0,21,0.00,,,0.00,,2013-06-16 21:42:00,
2013-06-16 14:53:00,88.0,42.0,27.86,ENE,72,2.0,4.0,20,0.00,,,0.00,,2013-06-16 21:53:00,
2013-06-16 15:01:00,88.0,44.0,27.85,NE,54,0.0,3.0,22,0.00,,,0.00,,2013-06-16 22:01:00,
2013-06-16 15:12:00,88.0,44.0,27.85,NE,54,0.0,3.0,22,0.00,,,0.00,,2013-06-16 22:12:00,
2013-06-16 15:22:00,87.0,44.0,27.85,NE,41,1.0,4.0,22,0.00,,,0.00,,2013-06-16 22:22:00,
2013-06-16 15:32:00,87.0,41.0,27.85,NE,41,2.0,5.0,20,0.00,,,0.00,,2013-06-16 22:32:00,
2013-06-16 15:41:00,87.0,41.0,27.85,NE,41,2.0,5.0,20,0.00,,,0.00,,2013-06-16 22:41:00,
2013-06-16 15:52:00,88.0,42.0,27.84,SE,133,0.0,3.0,20,0.00,,,0.00,,2013-06-16 22:52:00,
2013-06-16 16:01:00,88.0,41.0,27.83,ENE,72,4.0,7.0,19,0.00,,,0.00,,2013-06-16 23:01:00,
2013-06-16 16:11:00,88.0,41.0,27.83,ENE,72,4.0,7.0,19,0.00,,,0.00,,2013-06-16 23:11:00,
2013-06-16 16:22:00,90.0,42.0,27.83,SSE,156,3.0,7.0,19,0.00,,,0.00,,2013-06-16 23:22:00,
2013-06-16 16:32:00,89.0,41.0,27.82,NW,312,2.0,6.0,19,0.00,,,0.00,,2013-06-16 23:32:00,
2013-06-16 16:42:00,89.0,41.0,27.82,NW,312,2.0,6.0,19,0.00,,,0.00,,2013-06-16 23:42:00,
2013-06-16 16:52:00,89.0,44.0,27.82,ENE,61,2.0,6.0,21,0.00,,,0.00,,2013-06-16 23:52:00,
2013-06-16 17:01:00,88.0,42.0,27.81,East,96,1.0,7.0,20,0.00,,,0.00,,2013-06-17 00:01:00,
2013-06-16 17:11:00,88.0,42.0,27.81,East,96,1.0,7.0,20,0.00,,,0.00,,2013-06-17 00:11:00,
2013-06-16 17:22:00,90.0,42.0,27.81,SW,221,3.0,5.0,19,0.00,,,0.00,,2013-06-17 00:22:00,
2013-06-16 17:32:00,88.0,39.0,27.81,SSE,160,5.0,8.0,18,0.00,,,0.00,,2013-06-17 00:32:00,
2013-06-16 17:42:00,88.0,39.0,27.81,SSE,160,5.0,8.0,18,0.00,,,0.00,,2013-06-17 00:42:00,
2013-06-16 17:52:00,88.0,41.0,27.81,SE,124,3.0,7.0,19,0.00,,,0.00,,2013-06-17 00:52:00,
2013-06-16 18:02:00,87.0,42.0,27.81,West,260,1.0,5.0,21,0.00,,,0.00,,2013-06-17 01:02:00,
2013-06-16 18:11:00,87.0,42.0,27.81,West,260,1.0,5.0,21,0.00,,,0.00,,2013-06-17 01:11:00,
2013-06-16 18:22:00,86.0,41.0,27.81,WSW,240,3.0,5.0,21,0.00,,,0.00,,2013-06-17 01:22:00,
2013-06-16 18:32:00,86.0,41.0,27.81,South,181,2.0,4.0,21,0.00,,,0.00,,2013-06-17 01:32:00,
2013-06-16 18:43:00,86.0,41.0,27.81,South,181,2.0,4.0,21,0.00,,,0.00,,2013-06-17 01:43:00,
2013-06-16 18:53:00,86.0,41.0,27.81,SSW,210,0.0,3.0,21,0.00,,,0.00,,2013-06-17 01:53:00,
2013-06-16 19:02:00,86.0,41.0,27.81,SW,235,0.0,2.0,21,0.00,,,0.00,,2013-06-17 02:02:00,
2013-06-16 19:11:00,86.0,41.0,27.81,SW,235,0.0,2.0,21,0.00,,,0.00,,2013-06-17 02:11:00,
2013-06-16 19:22:00,86.0,41.0,27.80,WNW,293,0.0,1.0,21,0.00,,,0.00,,2013-06-17 02:22:00,
2013-06-16 19:34:00,88.0,41.0,27.80,ENE,70,0.0,1.0,19,0.00,,,0.00,,2013-06-17 02:34:00,
2013-06-16 19:43:00,88.0,41.0,27.80,ENE,70,0.0,1.0,19,0.00,,,0.00,,2013-06-17 02:43:00,
2013-06-16 19:53:00,87.0,42.0,27.81,WNW,287,4.0,6.0,21,0.00,,,0.00,,2013-06-17 02:53:00,
2013-06-16 20:01:00,85.0,43.0,27.81,West,281,4.0,8.0,23,0.00,,,0.00,,2013-06-17 03:01:00,
2013-06-16 20:11:00,85.0,43.0,27.81,West,281,4.0,8.0,23,0.00,,,0.00,,2013-06-17 03:11:00,
2013-06-16 20:22:00,82.0,47.0,27.81,SSW,204,12.0,18.0,30,0.00,,,0.00,,2013-06-17 03:22:00,
2013-06-16 20:33:00,80.0,49.0,27.82,NW,319,6.0,17.0,34,0.00,,,0.00,,2013-06-17 03:33:00,
2013-06-16 20:44:00,80.0,49.0,27.82,NW,319,6.0,17.0,34,0.00,,,0.00,,2013-06-17 03:44:00,
2013-06-16 20:53:00,79.0,50.0,27.83,NW,318,9.0,21.0,36,0.00,,,0.00,,2013-06-17 03:53:00,
2013-06-16 21:02:00,78.0,50.0,27.83,WSW,241,12.0,20.0,38,0.00,,,0.00,,2013-06-17 04:02:00,
2013-06-16 21:12:00,78.0,50.0,27.83,WSW,241,12.0,20.0,38,0.00,,,0.00,,2013-06-17 04:12:00,
2013-06-16 21:22:00,77.0,51.0,27.83,West,262,11.0,20.0,40,0.00,,,0.00,,2013-06-17 04:22:00,
2013-06-16 21:33:00,77.0,51.0,27.83,West,262,11.0,20.0,40,0.00,,,0.00,,2013-06-17 04:33:00,
2013-06-16 21:42:00,76.0,51.0,27.84,WSW,256,10.0,21.0,41,0.00,,,0.00,,2013-06-17 04:42:00,
2013-06-16 21:53:00,75.0,50.0,27.85,WNW,302,14.0,24.0,41,0.00,,,0.00,,2013-06-17 04:53:00,
2013-06-16 22:02:00,74.0,49.0,27.85,WNW,298,12.0,25.0,41,0.00,,,0.00,,2013-06-17 05:02:00,
2013-06-16 22:11:00,74.0,49.0,27.85,WNW,298,12.0,25.0,41,0.00,,,0.00,,2013-06-17 05:11:00,
2013-06-16 22:22:00,74.0,49.0,27.86,WSW,257,14.0,27.0,42,0.00,,,0.00,,2013-06-17 05:22:00,
2013-06-16 22:33:00,73.0,49.0,27.86,ENE,68,10.0,25.0,43,0.00,,,0.00,,2013-06-17 05:33:00,
2013-06-16 22:44:00,73.0,49.0,27.86,ENE,68,10.0,25.0,43,0.00,,,0.00,,2013-06-17 05:44:00,
2013-06-16 22:53:00,73.0,50.0,27.86,WSW,247,9.0,17.0,45,0.00,,,0.00,,2013-06-17 05:53:00,
2013-06-16 23:02:00,72.0,49.0,27.87,ENE,72,9.0,20.0,45,0.00,,,0.00,,2013-06-17 06:02:00,
2013-06-16 23:12:00,72.0,49.0,27.87,ENE,72,9.0,20.0,45,0.00,,,0.00,,2013-06-17 06:12:00,
2013-06-16 23:22:00,72.0,49.0,27.87,West,263,7.0,24.0,45,0.00,,,0.00,,2013-06-17 06:22:00,
2013-06-16 23:32:00,72.0,50.0,27.87,WNW,299,11.0,23.0,46,0.00,,,0.00,,2013-06-17 06:32:00,
2013-06-16 23:43:00,72.0,50.0,27.87,WNW,299,11.0,23.0,46,0.00,,,0.00,,2013-06-17 06:43:00,
2013-06-16 23:53:00,71.0,49.0,27.86,WNW,289,8.0,20.0,46,0.00,,,0.00,,2013-06-17 06:53:00,